Météo par heure à Alimtau

Ce jour, 31 Octobre, Samedi

Heure Température Précipitation Vent Pression Humidité
00:00 +8°C° 0 mm 1 m/s 731 mmHg 26%
01:00 +9°C° 0 mm 1 m/s 731 mmHg 26%
02:00 +9°C° 0 mm 1 m/s 731 mmHg 25%
03:00 +8°C° 0 mm 1 m/s 731 mmHg 25%
04:00 +8°C° 0 mm 1 m/s 731 mmHg 25%
05:00 +8°C° 0 mm 1 m/s 731 mmHg 24%
06:00 +8°C° 0 mm 0 m/s 731 mmHg 23%
07:00 +8°C° 0 mm 0 m/s 731 mmHg 22%
08:00 +9°C° 0 mm 0 m/s 731 mmHg 21%
09:00 +13°C° 0 mm 1 m/s 731 mmHg 18%
10:00 +15°C° 0 mm 1 m/s 731 mmHg 15%
11:00 +19°C° 0 mm 1 m/s 731 mmHg 12%
12:00 +19°C° 0 mm 2 m/s 731 mmHg 11%
13:00 +20°C° 0 mm 2 m/s 731 mmHg 10%
14:00 +23°C° 0 mm 2 m/s 731 mmHg 9%
15:00 +20°C° 0 mm 2 m/s 730 mmHg 11%
16:00 +18°C° 0 mm 2 m/s 730 mmHg 13%
17:00 +17°C° 0 mm 2 m/s 730 mmHg 15%
18:00 +15°C° 0 mm 2 m/s 730 mmHg 17%
19:00 +13°C° 0 mm 2 m/s 730 mmHg 19%
20:00 +12°C° 0 mm 2 m/s 730 mmHg 21%
21:00 +11°C° 0 mm 1 m/s 730 mmHg 21%
22:00 +11°C° 0 mm 1 m/s 729 mmHg 21%
23:00 +11°C° 0 mm 1 m/s 729 mmHg 21%

Demain, 1 Novembre, Dimanche

Heure Température Précipitation Vent Pression Humidité
00:00 +10°C° 0 mm 1 m/s 729 mmHg 20%
01:00 +10°C° 0 mm 1 m/s 729 mmHg 20%
02:00 +10°C° 0 mm 1 m/s 729 mmHg 20%
03:00 +10°C° 0 mm 1 m/s 729 mmHg 20%
04:00 +10°C° 0 mm 1 m/s 729 mmHg 20%
05:00 +9°C° 0 mm 1 m/s 729 mmHg 19%
06:00 +10°C° 0 mm 1 m/s 729 mmHg 18%
07:00 +11°C° 0 mm 1 m/s 729 mmHg 17%
08:00 +12°C° 0 mm 1 m/s 730 mmHg 17%
09:00 +15°C° 0 mm 1 m/s 730 mmHg 14%
10:00 +19°C° 0 mm 1 m/s 730 mmHg 12%
11:00 +22°C° 0 mm 1 m/s 730 mmHg 9%
12:00 +22°C° 0 mm 1 m/s 730 mmHg 8%
13:00 +23°C° 0 mm 2 m/s 730 mmHg 8%
14:00 +24°C° 0 mm 2 m/s 729 mmHg 7%
15:00 +21°C° 0 mm 2 m/s 729 mmHg 9%
16:00 +20°C° 0 mm 2 m/s 729 mmHg 10%
17:00 +18°C° 0 mm 2 m/s 729 mmHg 11%
18:00 +16°C° 0 mm 2 m/s 729 mmHg 13%
19:00 +15°C° 0 mm 2 m/s 729 mmHg 14%
20:00 +14°C° 0 mm 2 m/s 729 mmHg 16%
21:00 +13°C° 0 mm 2 m/s 728 mmHg 16%
22:00 +13°C° 0 mm 1 m/s 728 mmHg 15%
23:00 +13°C° 0 mm 1 m/s 728 mmHg 15%

Après-demain, 2 Novembre, Lundi

Heure Température Précipitation Vent Pression Humidité
00:00 +13°C° 0 mm 1 m/s 728 mmHg 15%
01:00 +13°C° 0 mm 1 m/s 728 mmHg 14%
02:00 +13°C° 0 mm 1 m/s 728 mmHg 14%
03:00 +12°C° 0 mm 1 m/s 728 mmHg 14%
04:00 +12°C° 0 mm 1 m/s 728 mmHg 14%
05:00 +12°C° 0 mm 1 m/s 728 mmHg 14%
06:00 +12°C° 0 mm 1 m/s 728 mmHg 14%
07:00 +13°C° 0 mm 1 m/s 729 mmHg 13%
08:00 +13°C° 0 mm 1 m/s 729 mmHg 13%
09:00 +16°C° 0 mm 1 m/s 729 mmHg 11%
10:00 +19°C° 0 mm 1 m/s 730 mmHg 10%
11:00 +22°C° 0 mm 1 m/s 730 mmHg 8%
12:00 +23°C° 0 mm 1 m/s 730 mmHg 8%
13:00 +23°C° 0 mm 2 m/s 730 mmHg 7%
14:00 +24°C° 0 mm 2 m/s 730 mmHg 7%
15:00 +21°C° 0 mm 2 m/s 730 mmHg 8%
16:00 +20°C° 0 mm 2 m/s 729 mmHg 10%
17:00 +18°C° 0 mm 3 m/s 729 mmHg 11%
18:00 +17°C° 0 mm 3 m/s 730 mmHg 12%
19:00 +14°C° 0 mm 3 m/s 730 mmHg 14%
20:00 +14°C° 0 mm 2 m/s 730 mmHg 15%
21:00 +13°C° 0 mm 2 m/s 730 mmHg 15%
22:00 +13°C° 0 mm 2 m/s 730 mmHg 15%
23:00 +12°C° 0 mm 2 m/s 730 mmHg 15%

3 Novembre, Mardi

Heure Température Précipitation Vent Pression Humidité
00:00 +12°C° 0 mm 1 m/s 730 mmHg 15%
01:00 +12°C° 0 mm 1 m/s 730 mmHg 15%
02:00 +11°C° 0 mm 1 m/s 730 mmHg 15%
03:00 +11°C° 0 mm 1 m/s 730 mmHg 15%
04:00 +11°C° 0 mm 1 m/s 730 mmHg 15%
05:00 +11°C° 0 mm 1 m/s 730 mmHg 15%
06:00 +11°C° 0 mm 1 m/s 730 mmHg 14%
07:00 +12°C° 0 mm 1 m/s 731 mmHg 14%
08:00 +12°C° 0 mm 1 m/s 731 mmHg 14%
09:00 +15°C° 0 mm 1 m/s 731 mmHg 12%
10:00 +19°C° 0 mm 1 m/s 732 mmHg 10%
11:00 +21°C° 0 mm 1 m/s 732 mmHg 8%
12:00 +22°C° 0 mm 1 m/s 732 mmHg 8%
13:00 +23°C° 0 mm 2 m/s 732 mmHg 8%
14:00 +24°C° 0 mm 2 m/s 732 mmHg 8%
15:00 +21°C° 0 mm 3 m/s 732 mmHg 9%
16:00 +19°C° 0 mm 3 m/s 732 mmHg 11%
17:00 +17°C° 0 mm 3 m/s 732 mmHg 13%
18:00 +16°C° 0 mm 3 m/s 732 mmHg 15%
19:00 +13°C° 0 mm 3 m/s 732 mmHg 16%
20:00 +13°C° 0 mm 2 m/s 732 mmHg 18%
21:00 +12°C° 0 mm 2 m/s 732 mmHg 18%
22:00 +12°C° 0 mm 2 m/s 732 mmHg 18%
23:00 +12°C° 0 mm 2 m/s 732 mmHg 19%

4 Novembre, Mercredi

Heure Température Précipitation Vent Pression Humidité
00:00 +12°C° 0 mm 2 m/s 732 mmHg 19%
01:00 +11°C° 0 mm 1 m/s 732 mmHg 18%
02:00 +11°C° 0 mm 1 m/s 732 mmHg 18%
03:00 +11°C° 0 mm 1 m/s 732 mmHg 18%
04:00 +10°C° 0 mm 2 m/s 732 mmHg 18%
05:00 +10°C° 0 mm 2 m/s 732 mmHg 18%
06:00 +10°C° 0 mm 2 m/s 732 mmHg 17%
07:00 +12°C° 0 mm 1 m/s 732 mmHg 17%
08:00 +12°C° 0 mm 1 m/s 733 mmHg 16%
09:00 +15°C° 0 mm 1 m/s 733 mmHg 14%
10:00 +19°C° 0 mm 1 m/s 733 mmHg 12%
11:00 +21°C° 0 mm 1 m/s 733 mmHg 11%
12:00 +22°C° 0 mm 1 m/s 733 mmHg 11%
13:00 +23°C° 0 mm 2 m/s 733 mmHg 12%
14:00 +24°C° 0 mm 2 m/s 733 mmHg 13%
15:00 +21°C° 0 mm 3 m/s 733 mmHg 15%
16:00 +19°C° 0 mm 3 m/s 732 mmHg 17%
17:00 +18°C° 0 mm 3 m/s 732 mmHg 19%
18:00 +16°C° 0 mm 3 m/s 732 mmHg 23%
19:00 +13°C° 0 mm 3 m/s 732 mmHg 27%
20:00 +12°C° 0 mm 3 m/s 732 mmHg 31%
21:00 +11°C° 0 mm 3 m/s 732 mmHg 32%
22:00 +12°C° 0 mm 2 m/s 732 mmHg 32%
23:00 +12°C° 0 mm 2 m/s 732 mmHg 33%

5 Novembre, Jeudi

Heure Température Précipitation Vent Pression Humidité
00:00 +12°C° 0 mm 2 m/s 732 mmHg 33%
01:00 +10°C° 0 mm 2 m/s 732 mmHg 34%
02:00 +11°C° 0 mm 1 m/s 731 mmHg 34%
03:00 +11°C° 0 mm 1 m/s 731 mmHg 34%
04:00 +11°C° 0 mm 1 m/s 731 mmHg 35%
05:00 +11°C° 0 mm 1 m/s 731 mmHg 35%
06:00 +11°C° 0 mm 1 m/s 731 mmHg 34%
07:00 +11°C° 0 mm 1 m/s 731 mmHg 32%
08:00 +12°C° 0 mm 1 m/s 732 mmHg 31%
09:00 +15°C° 0 mm 1 m/s 732 mmHg 27%
10:00 +19°C° 0 mm 1 m/s 732 mmHg 23%
11:00 +21°C° 0 mm 1 m/s 732 mmHg 18%
12:00 +22°C° 0 mm 1 m/s 731 mmHg 17%
13:00 +23°C° 0 mm 2 m/s 731 mmHg 16%
14:00 +24°C° 0 mm 3 m/s 731 mmHg 15%
15:00 +21°C° 0 mm 3 m/s 731 mmHg 17%
16:00 +20°C° 0 mm 3 m/s 730 mmHg 19%
17:00 +18°C° 0 mm 3 m/s 730 mmHg 20%
18:00 +16°C° 0 mm 3 m/s 730 mmHg 23%
19:00 +14°C° 0 mm 2 m/s 730 mmHg 26%
20:00 +12°C° 0 mm 2 m/s 729 mmHg 29%
21:00 +12°C° 0 mm 2 m/s 729 mmHg 30%
22:00 +11°C° 0 mm 1 m/s 729 mmHg 31%
23:00 +11°C° 0 mm 1 m/s 729 mmHg 31%
Voir plus

Nous avons besoin de votre consentement

Meteoprog et ses fournisseurs de services peuvent stocker et accéder à des données personnelles telles que des cookies, des identifiants d'appareils ou d'autres technologies similaires sur votre appareil et traiter ces données pour personnaliser le contenu et les publicités, ainsi que pour fournir des fonctionnalités de médias sociaux et analyser le trafic.

  • Stocker et/ou accéder à des informations sur votre appareil

    Des cookies, des identifiants d'appareils ou d'autres informations peuvent être stockés ou accessibles sur votre appareil aux fins indiquées ci-dessus.

  • Annonces et contenus personnalisés, mesure des annonces et des contenus, connaissance de l'audience et développement de produits

    Les annonces et le contenu peuvent être personnalisés en fonction d'un profil. D'autres données peuvent être ajoutées pour mieux personnaliser les annonces et le contenu. Les performances des publicités et du contenu peuvent être mesurées. Il est possible d'obtenir des informations sur le public qui a vu les publicités et le contenu. Ces données peuvent être utilisées pour développer ou améliorer l'expérience de l'utilisateur, les systèmes et les logiciels.

En cliquant sur "J'accepte", vous autorisez l'utilisation de cookies, des identifiants d'appareils, des balises web ou d'autres technologies similaires. Vos paramètres peuvent être modifiés dans le navigateur de votre appareil.

Dans certains cas, des intérêts légitimes peuvent être invoqués plutôt qu'un consentement. Vous pouvez en savoir plus à ce sujet dans notre Politique de confidentialité et de cookies.